Providence, RI

2:34 PM EDT on June 28, 2017 (GMT -0400)
Green State

Weather History for KPVD - January, 2013

Change the Weather History Date:

Friday, January 4, 2013

  Actual Average Record
Temperature  
Mean Temperature 30 °F 30 °F  
Max Temperature 37 °F 38 °F 61 °F (1950)
Min Temperature 22 °F 21 °F -9 °F (1981)
Degree Days  
Heating Degree Days 35 35  
Month to date heating degree days 158 140  
Since 1 July heating degree days 1998 2167  
Cooling Degree Days 0 0  
Month to date cooling degree days 0 0  
Year to date cooling degree days 0 0  
Moisture  
Dew Point 18 °F    
Average Humidity 60    
Maximum Humidity 68    
Minimum Humidity 52    
Precipitation  
Precipitation 0.00 in 0.13 in 2.90 in (1982)
Month to date precipitation T 0.49  
Year to date precipitation T 0.49  
Snow  
Snow 0.00 in 0.20 in 5.70 in (1988)
Month to date snowfall T 1.1  
Since 1 July snowfall 10.6 11.3  
Snow Depth 3.00 in    
Sea Level Pressure  
Sea Level Pressure 29.94 in    
Wind  
Wind Speed 11 mph (WSW)    
Max Wind Speed 21 mph    
Max Gust Speed 26 mph    
Visibility 10 miles    
Events      
T = Trace of Precipitation, MM = Missing Value Source: NWS Daily Summary

Daily Weather History Graph

Daily Weather History Graph

Search for Another Location

Airport or City:

Trip Planner

Search our weather history database for the weather conditions in past years. The results will help you decide how hot, cold, wet, or windy it might be!

Date:

Astronomy

Jan. 04, 2013 Rise Set
Actual Time 7:13 AM EST 4:28 PM EST
Civil Twilight 6:41 AM EST 5:00 PM EST
Nautical Twilight 6:06 AM EST 5:34 PM EST
Astronomical Twilight 5:33 AM EST 6:08 PM EST
Moon No Moon Rise 10:47 AM EST (1/4)
Length of Visible Light 10h 18m
Length of Day
9h 15m
Waning Gibbous, 55% of the Moon is Illuminated
Jan 4
Waning Gibbous
Jan 4
Last Quarter
Jan 11
New
Jan 18
First Quarter
Jan 26
Full

Hourly Weather History & Observations

Time (EST) Temp. Windchill Dew Point Humidity Pressure Visibility Wind Dir Wind Speed Gust Speed Precip Events Conditions
12:51 AM 23.0 °F 14.7 °F 12.0 °F 63% 30.00 in 10.0 mi West 6.9 mph - N/A   Partly Cloudy
1:51 AM 24.1 °F 14.4 °F 12.9 °F 62% 29.99 in 10.0 mi West 9.2 mph - N/A   Partly Cloudy
2:51 AM 25.0 °F 14.2 °F 14.0 °F 63% 29.99 in 10.0 mi West 11.5 mph - N/A   Partly Cloudy
3:51 AM 24.8 °F 15.3 °F 14.0 °F 64% 29.98 in 10.0 mi West 9.2 mph - N/A   Scattered Clouds
4:51 AM 24.1 °F 13.1 °F 15.1 °F 69% 29.98 in 10.0 mi WSW 11.5 mph - N/A   Scattered Clouds
5:51 AM 24.1 °F 13.1 °F 15.1 °F 69% 29.99 in 10.0 mi West 11.5 mph - N/A   Clear
6:51 AM 24.1 °F 13.7 °F 15.1 °F 69% 29.99 in 10.0 mi West 10.4 mph - N/A   Scattered Clouds
7:51 AM 25.0 °F 14.8 °F 16.0 °F 69% 30.00 in 10.0 mi West 10.4 mph - N/A   Scattered Clouds
8:51 AM 28.9 °F 18.6 °F 18.0 °F 64% 30.01 in 10.0 mi West 12.7 mph - N/A   Scattered Clouds
9:51 AM 32.0 °F 22.1 °F 19.0 °F 59% 30.00 in 10.0 mi West 13.8 mph - N/A   Scattered Clouds
10:51 AM 35.1 °F 26.9 °F 19.0 °F 52% 29.97 in 10.0 mi West 11.5 mph - N/A   Scattered Clouds
11:51 AM 36.0 °F 27.1 °F 19.0 °F 50% 29.94 in 10.0 mi WSW 13.8 mph 20.7 mph N/A   Scattered Clouds
12:51 PM 37.0 °F 28.1 °F 21.0 °F 52% 29.89 in 10.0 mi WSW 15.0 mph - N/A   Scattered Clouds
1:51 PM 37.0 °F 26.7 °F 21.0 °F 52% 29.86 in 10.0 mi SW 19.6 mph 25.3 mph N/A   Scattered Clouds
2:51 PM 37.4 °F 27.2 °F 21.2 °F 52% 29.86 in 10.0 mi SW 19.6 mph 24.2 mph N/A   Mostly Cloudy
3:51 PM 37.0 °F 27.7 °F 21.9 °F 54% 29.86 in 10.0 mi WSW 16.1 mph 20.7 mph N/A   Scattered Clouds
4:51 PM 35.1 °F 29.3 °F 21.9 °F 59% 29.86 in 10.0 mi SW 6.9 mph - N/A   Mostly Cloudy
5:51 PM 34.0 °F 26.6 °F 21.9 °F 61% 29.88 in 10.0 mi SW 9.2 mph - N/A   Mostly Cloudy
6:51 PM 34.0 °F 27.2 °F 21.9 °F 61% 29.88 in 10.0 mi SW 8.1 mph - N/A   Scattered Clouds
7:51 PM 32.0 °F 24.8 °F 21.0 °F 64% 29.90 in 10.0 mi WSW 8.1 mph - N/A   Scattered Clouds
8:51 PM 32.0 °F 23.0 °F 19.9 °F 61% 29.89 in 10.0 mi WSW 11.5 mph - N/A   Scattered Clouds
9:51 PM 30.9 °F 22.2 °F 19.0 °F 61% 29.89 in 10.0 mi WSW 10.4 mph - N/A   Partly Cloudy
10:51 PM 30.0 °F 25.2 °F 19.0 °F 64% 29.90 in 10.0 mi SW 4.6 mph - N/A   Partly Cloudy
11:51 PM 28.9 °F 22.8 °F 18.0 °F 64% 29.91 in 10.0 mi SW 5.8 mph - N/A   Partly Cloudy